EW1000 Weather Reports


time (UTC)temp
F
wind
direction
speed
knots
gust
knots
rain 1hr
in
rain 24hr
in
rain mn
in
humidity
%
barometer
mb
20260505041542 74 219 0.0 3.5 0.00 0.00 0.00 71 1014.5
20260505040041 74 110 0.0 1.7 0.00 0.00 0.00 71 1014.6
20260505034539 74 56 0.0 2.6 0.00 0.00 0.00 72 1014.7
20260505033040 74 85 0.9 2.6 0.00 0.00 0.00 72 1014.9
20260505031550 74 117 0.9 3.5 0.00 0.00 0.00 74 1014.9
20260505030031 75 104 1.7 3.5 0.00 0.00 0.00 72 1015.0
20260505024544 75 112 0.9 3.5 0.00 0.00 0.00 72 1015.0
20260505023039 75 115 1.7 4.3 0.00 0.00 0.00 72 1015.0
20260505021529 75 120 0.0 7.0 0.00 0.00 0.00 72 1014.9
20260505020029 75 126 1.7 4.3 0.00 0.00 0.00 72 1014.9
20260505014535 75 105 1.7 5.2 0.00 0.00 0.00 72 1014.6
20260505013026 75 70 2.6 7.8 0.00 0.00 0.00 72 1014.5
20260505011527 76 80 0.9 7.0 0.00 0.00 0.00 71 1014.3
20260505010026 76 83 1.7 7.0 0.00 0.00 0.00 71 1014.1
20260505004526 76 89 3.5 6.1 0.00 0.00 0.00 70 1013.8
20260505003024 77 118 1.7 3.5 0.00 0.00 0.00 69 1013.5
20260505001524 77 89 1.7 5.2 0.00 0.00 0.00 69 1013.3
20260505000024 77 101 3.5 7.8 0.00 0.00 0.00 69 1013.3
20260504234524 78 109 2.6 9.6 0.00 0.00 0.00 68 1013.0
20260504233024 78 128 2.6 5.2 0.00 0.00 0.00 66 1012.8
20260504231521 79 101 2.6 8.7 0.00 0.00 0.00 65 1012.7
20260504230020 79 79 3.5 7.8 0.00 0.00 0.00 64 1012.5
20260504224520 80 143 1.7 7.8 0.00 0.00 0.00 62 1012.3
20260504223018 81 117 6.1 8.7 0.00 0.00 0.00 61 1012.1
20260504221517 82 128 1.7 6.1 0.00 0.00 0.00 60 1011.9
20260504220017 82 112 3.5 7.8 0.00 0.00 0.00 59 1011.7
20260504214519 82 49 4.3 7.0 0.00 0.00 0.00 58 1011.7
20260504213020 82 122 4.3 9.6 0.00 0.00 0.00 57 1011.6
20260504211517 83 139 4.3 8.7 0.00 0.00 0.00 53 1011.3
20260504210020 84 89 6.1 10.4 0.00 0.00 0.00 52 1011.3
20260504204526 84 82 3.5 8.7 0.00 0.00 0.00 50 1011.3
20260504203025 84 103 3.5 9.6 0.00 0.00 0.00 50 1011.3
20260504201509 85 186 3.5 12.2 0.00 0.00 0.00 50 1011.5
20260504200007 85 117 3.5 7.0 0.00 0.00 0.00 47 1011.6
20260504194504 85 94 3.5 8.7 0.00 0.00 0.00 49 1011.9
20260504193009 84 117 2.6 8.7 0.00 0.00 0.00 49 1011.9
20260504191501 84 126 4.3 9.6 0.00 0.00 0.00 49 1012.3
20260504190100 86 98 4.3 7.0 0.00 0.00 0.00 46 1012.3
20260504184601 84 162 1.7 7.8 0.00 0.00 0.00 47 1012.5
20260504183103 85 108 4.3 8.7 0.00 0.00 0.00 46 1012.7
20260504181552 85 58 7.0 9.6 0.00 0.00 0.00 45 1012.8
20260504174547 85 95 4.3 8.7 0.00 0.00 0.00 43 1013.1
20260504173058 84 120 2.6 10.4 0.00 0.00 0.00 44 1013.3
20260504171545 84 215 4.3 10.4 0.00 0.00 0.00 45 1013.6
20260504081508 0 0.0 0.0 0.00 0.00 0.00 1013.3